Weather reports worldwide

Advertisment
Wattisham, United Kingdom (3590): temperature & dewpoint: 18.07.2019 00:00:00 - 24.07.2019 00:00:00 (BST)Wattisham, United Kingdom (3590): temperature -20cm & temperature -100cm: 18.07.2019 00:00:00 - 24.07.2019 00:00:00 (BST)Wattisham, United Kingdom (3590): wind speed & gusts: 18.07.2019 00:00:00 - 24.07.2019 00:00:00 (BST)Wattisham, United Kingdom (3590): wind direction: 18.07.2019 00:00:00 - 24.07.2019 00:00:00 (BST)Wattisham, United Kingdom (3590): reduced air pressure: 18.07.2019 00:00:00 - 24.07.2019 00:00:00 (BST)Wattisham, United Kingdom (3590): visibility: 18.07.2019 00:00:00 - 24.07.2019 00:00:00 (BST)Wattisham, United Kingdom (3590): sunshine duration: 18.07.2019 00:00:00 - 24.07.2019 00:00:00 (BST)Wattisham, United Kingdom (3590): precipitation: 18.07.2019 00:00:00 - 24.07.2019 00:00:00 (BST)
Date & Time tt [°C] td [°C] tt -20cm [°C] tt -100cm [°C] ff [km/h] ff [kn] fx [km/h] fx [kn] dd ppp [hPa] vv [km] sd [min] rr [mm]
24.07.2019 00:00:00 - - - - - - - - - - - - -
23.07.2019 23:00:00 21,0 15,4 - - 15 8 - - E 1014,9 30 0 0,0
23.07.2019 22:00:00 21,7 15,2 - - 15 8 - - E 1015,1 10 0 0,0
23.07.2019 21:00:00 23,5 15,1 - - 15 8 - - E 1015,0 30 0 0,0
23.07.2019 20:00:00 25,9 15,1 - - 15 8 - - ESE 1015,4 10 54 0,0
23.07.2019 19:00:00 27,7 14,5 - - 15 8 - - SE 1016,0 45 60 0,0
23.07.2019 18:00:00 28,6 14,2 - - 18 10 - - SSE 1016,3 10 60 0,0
23.07.2019 17:00:00 28,7 14,8 - - 21 11 - - SE 1016,6 10 60 0,0
23.07.2019 16:00:00 28,8 13,5 - - 16 9 - - SSE 1017,1 10 60 0,0
23.07.2019 15:00:00 28,9 15,0 - - 21 11 - - SSE 1017,5 10 60 0,0
23.07.2019 14:00:00 28,4 15,6 - - 15 8 - - SSE 1018,0 45 60 0,0
23.07.2019 13:00:00 27,8 16,4 - - 15 8 - - SSE 1018,4 10 60 0,0
23.07.2019 12:00:00 26,9 16,6 - - 16 9 - - SSE 1018,9 10 60 0,0
23.07.2019 11:00:00 26,0 17,6 - - 13 7 - - SE 1019,2 10 60 0,0
23.07.2019 10:00:00 24,8 18,1 18,2 16,0 11 6 - - SE 1019,7 10 60 0,0
23.07.2019 09:00:00 23,6 17,5 - - 15 8 - - ESE 1020,1 10 60 0,0
23.07.2019 08:00:00 22,0 17,6 - - 9 5 - - ESE 1020,3 10 54 0,0
23.07.2019 07:00:00 20,9 18,1 - - 5 3 - - ESE 1020,6 10 6 0,0
23.07.2019 06:00:00 18,6 18,0 - - 4 2 - - E 1020,6 20 0 0,0
23.07.2019 05:00:00 17,6 16,4 - - 4 2 - - SSE 1020,8 10 0 0,0
23.07.2019 04:00:00 19,1 17,0 - - 8 4 - - SE 1021,0 10 0 0,0
23.07.2019 03:00:00 18,3 17,2 - - 2 1 - - WSW 1021,0 35 0 0,0
23.07.2019 02:00:00 18,9 17,4 - - 2 1 - - W 1021,1 23 0 0,0
23.07.2019 01:00:00 17,9 16,6 - - 4 2 - - WSW 1021,2 13 - 0,0
23.07.2019 00:00:00 19,6 17,0 - - 4 2 - - WSW 1021,3 30 0 0,0
22.07.2019 23:00:00 19,8 17,3 - - 11 6 - - WNW 1021,3 28 0 0,0
22.07.2019 22:00:00 22,0 17,6 - - 13 7 - - SSW 1020,7 35 0 0,0
22.07.2019 21:00:00 23,6 17,8 - - 9 5 - - SSW 1020,5 40 18 0,0
22.07.2019 20:00:00 25,3 17,8 - - 13 7 - - SW 1020,2 30 60 0,0
22.07.2019 19:00:00 26,5 17,8 - - 21 11 - - SW 1019,9 10 60 0,0
22.07.2019 18:00:00 27,4 17,6 - - 21 11 - - SW 1019,7 35 60 0,0
22.07.2019 17:00:00 28,3 18,5 - - 21 11 - - SW 1019,8 10 60 0,0
22.07.2019 16:00:00 27,7 18,3 - - 21 11 - - SW 1020,3 40 60 0,0
22.07.2019 15:00:00 27,3 17,4 - - 21 11 - - WSW 1020,4 10 60 0,0
22.07.2019 14:00:00 26,4 17,4 - - 22 12 - - WSW 1020,6 10 60 0,0
22.07.2019 13:00:00 25,8 17,3 - - 28 15 - - WSW 1020,8 10 60 0,0
22.07.2019 12:00:00 25,1 17,0 - - 28 15 - - WSW 1020,8 10 60 0,0
22.07.2019 11:00:00 23,7 16,5 - - 22 12 - - W 1021,2 10 54 0,0
22.07.2019 10:00:00 22,0 16,5 17,7 16,0 28 15 - - W 1021,1 10 30 0,0
22.07.2019 09:00:00 21,8 17,0 - - 24 13 - - WSW 1020,9 10 24 0,0
22.07.2019 08:00:00 19,6 15,8 - - 26 14 - - WSW 1020,4 10 42 0,0
22.07.2019 07:00:00 17,0 15,0 - - 21 11 - - WSW 1020,3 10 6 0,0
22.07.2019 06:00:00 15,2 14,0 - - 15 8 - - SW 1020,2 16 0 0,0
22.07.2019 05:00:00 14,7 13,4 - - 15 8 - - SW 1020,4 10 0 0,0
22.07.2019 04:00:00 14,9 13,3 - - 21 11 - - SW 1020,5 25 0 0,0
22.07.2019 03:00:00 14,8 13,0 - - 21 11 - - SSW 1020,3 10 0 0,0
22.07.2019 02:00:00 15,3 12,5 - - 16 9 - - SW 1020,5 45 0 0,0
22.07.2019 01:00:00 16,0 12,6 - - 15 8 - - SSW 1020,9 45 - 0,0
22.07.2019 00:00:00 17,1 12,9 - - 13 7 - - SSW 1021,0 50 0 0,0
21.07.2019 23:00:00 17,8 13,0 - - 15 8 - - SSW 1021,1 50 0 0,0
21.07.2019 22:00:00 18,2 13,4 - - 11 6 - - SSW 1021,2 50 0 0,0
21.07.2019 21:00:00 19,0 13,2 - - 11 6 - - SW 1020,8 10 0 0,0
21.07.2019 20:00:00 20,4 12,7 - - 16 9 - - SW 1020,4 10 6 0,0
21.07.2019 19:00:00 21,6 12,6 - - 16 9 - - WSW 1020,3 50 0 0,0
21.07.2019 18:00:00 22,6 12,3 - - 21 11 - - WSW 1020,0 10 0 0,0
21.07.2019 17:00:00 22,1 11,9 - - 18 10 - - SW 1020,4 40 12 0,0
21.07.2019 16:00:00 22,3 12,5 - - 18 10 - - SW 1020,6 10 18 0,0
21.07.2019 15:00:00 22,8 12,3 - - 21 11 - - WSW 1020,6 10 30 0,0
21.07.2019 14:00:00 21,3 12,2 - - 22 12 - - WSW 1020,7 40 0 0,0
21.07.2019 13:00:00 21,4 10,7 - - 18 10 - - WSW 1020,7 10 18 0,0
21.07.2019 12:00:00 21,2 11,2 - - 16 9 - - WSW 1020,3 10 42 0,0
21.07.2019 11:00:00 19,9 10,9 - - 15 8 - - WSW 1020,2 40 54 0,0
21.07.2019 10:00:00 19,2 13,9 17,7 16,0 13 7 - - SW 1019,9 29 60 0,0
21.07.2019 09:00:00 16,9 13,0 - - 13 7 - - WSW 1019,7 35 48 0,0
21.07.2019 08:00:00 14,9 12,9 - - 15 8 - - WSW 1019,6 45 18 0,0
21.07.2019 07:00:00 13,1 12,2 - - 11 6 - - WSW 1019,0 10 48 0,0
21.07.2019 06:00:00 11,1 10,8 - - 9 5 - - WSW 1018,1 10 0 0,0
21.07.2019 05:00:00 10,8 10,3 - - 9 5 - - WSW 1017,4 28 0 0,0
21.07.2019 04:00:00 12,7 12,2 - - 8 4 - - SW 1016,9 45 0 0,0
21.07.2019 03:00:00 12,2 10,8 - - 8 4 - - W 1016,4 30 0 0,0
21.07.2019 02:00:00 13,6 11,1 - - 8 4 - - WNW 1015,8 40 0 0,0
21.07.2019 01:00:00 15,8 13,6 - - 9 5 - - WNW 1015,2 10 - 0,0
21.07.2019 00:00:00 17,2 14,2 - - 15 8 - - WNW 1014,6 50 0 0,0
20.07.2019 23:00:00 15,5 13,6 - - 9 5 - - WSW 1013,8 50 0 0,0
20.07.2019 22:00:00 17,7 14,8 - - 11 6 - - W 1013,0 45 0 0,0
20.07.2019 21:00:00 18,4 14,5 - - 11 6 - - WNW 1012,0 10 0 0,0
20.07.2019 20:00:00 20,1 13,2 - - 24 13 - - W 1010,6 40 18 0,0
20.07.2019 19:00:00 22,0 13,0 - - 29 16 - - W 1009,6 30 24 0,0
20.07.2019 18:00:00 23,0 12,5 - - 31 17 46 25 W 1008,6 35 24 0,0
20.07.2019 17:00:00 23,2 11,5 - - 31 17 48 26 W 1007,9 30 42 0,0
20.07.2019 16:00:00 23,7 12,9 - - 31 17 48 26 WSW 1007,2 50 60 0,0
20.07.2019 15:00:00 23,5 14,0 - - 31 17 52 28 WSW 1006,8 50 42 0,0
20.07.2019 14:00:00 21,0 15,3 - - 28 15 46 25 WSW 1006,8 27 18 0,0
20.07.2019 13:00:00 21,7 14,5 - - 31 17 46 25 WSW 1005,9 10 48 0,0
20.07.2019 12:00:00 21,2 16,9 - - 28 15 - - WSW 1005,7 25 24 0,0
20.07.2019 11:00:00 18,7 17,8 - - 16 9 - - SW 1005,9 25 0 0,0
20.07.2019 10:00:00 18,2 16,7 17,5 16,0 18 10 - - SW 1005,7 10 0 0,0
20.07.2019 09:00:00 18,0 16,8 - - 16 9 - - SSW 1005,7 25 6 0,0
20.07.2019 08:00:00 17,1 16,4 - - 21 11 - - SSW 1005,8 30 0 0,0
20.07.2019 07:00:00 16,4 16,1 - - 22 12 - - SSW 1005,8 21 0 0,0
20.07.2019 06:00:00 15,7 15,4 - - 15 8 - - SSW 1006,0 10 0 0,0
20.07.2019 05:00:00 15,7 15,4 - - 13 7 - - S 1006,3 15 0 1,4
20.07.2019 04:00:00 15,4 15,0 - - 11 6 - - S 1006,1 6 0 2,6
20.07.2019 03:00:00 15,6 15,1 - - 15 8 - - S 1007,6 11 0 1,6
20.07.2019 02:00:00 16,1 15,4 - - 16 9 - - SSW 1007,8 15 0 6,6
20.07.2019 01:00:00 17,1 16,7 - - 13 7 - - SSW 1007,9 6 - 1,4
20.07.2019 00:00:00 17,3 16,8 - - 15 8 - - S 1008,3 12 0 0,8
19.07.2019 23:00:00 17,4 16,9 - - 15 8 - - S 1008,7 8 0 0,0
19.07.2019 22:00:00 17,5 16,9 - - 18 10 - - S 1009,0 14 0 0,0
19.07.2019 21:00:00 17,3 16,6 - - 13 7 - - S 1009,3 12 0 0,8
19.07.2019 20:00:00 17,3 16,3 - - 15 8 - - S 1009,4 10 0 0,6
19.07.2019 19:00:00 17,6 15,9 - - 16 9 - - SSW 1009,7 10 0 0,2
19.07.2019 18:00:00 18,2 15,6 - - 24 13 - - SSW 1009,8 10 0 0,0
19.07.2019 17:00:00 17,8 15,3 - - 21 11 - - SSW 1010,3 10 0 0,0
19.07.2019 16:00:00 17,7 14,3 - - 22 12 - - SSW 1010,7 10 0 0,0
19.07.2019 15:00:00 17,9 13,7 - - 21 11 - - SSW 1011,2 10 0 0,0
19.07.2019 14:00:00 17,7 13,5 - - 24 13 - - SSW 1011,4 40 0 0,0
19.07.2019 13:00:00 17,8 13,3 - - 21 11 - - SSW 1011,2 10 0 0,0
19.07.2019 12:00:00 18,6 11,5 - - 21 11 - - SSW 1011,7 10 0 0,0
19.07.2019 11:00:00 18,7 12,4 - - 21 11 - - SW 1012,1 10 0 0,0
19.07.2019 10:00:00 18,0 11,7 17,7 16,0 18 10 - - SW 1012,3 10 0 0,0
19.07.2019 09:00:00 15,6 12,2 - - 11 6 - - SSW 1012,6 10 0 0,0
19.07.2019 08:00:00 14,0 11,7 - - 8 4 - - SW 1012,6 30 0 0,0
19.07.2019 07:00:00 12,6 10,9 - - 9 5 - - WSW 1012,8 10 0 0,0
19.07.2019 06:00:00 11,6 10,6 - - 9 5 - - SW 1012,3 10 0 0,0
19.07.2019 05:00:00 10,0 8,4 - - 9 5 - - WSW 1012,4 29 0 0,0
19.07.2019 04:00:00 10,5 8,8 - - 11 6 - - WSW 1012,7 40 0 0,0
19.07.2019 03:00:00 12,1 9,7 - - 11 6 - - WNW 1012,3 45 0 0,0
19.07.2019 02:00:00 12,2 9,7 - - 9 5 - - WSW 1012,4 50 0 0,0
19.07.2019 01:00:00 13,9 9,9 - - 9 5 - - W 1012,2 10 - 0,0
19.07.2019 00:00:00 14,9 9,9 - - 8 4 - - WSW 1011,9 10 0 0,0
18.07.2019 23:00:00 15,9 10,0 - - 5 3 - - WSW 1011,5 10 0 0,0
18.07.2019 22:00:00 16,1 10,0 - - 8 4 - - W 1011,5 10 0 0,0
18.07.2019 21:00:00 17,6 10,3 - - 8 4 - - W 1010,8 10 0 0,0
18.07.2019 20:00:00 19,9 10,8 - - 9 5 - - WNW 1010,2 50 6 0,0
18.07.2019 19:00:00 20,6 10,5 - - 15 8 - - NW 1009,8 50 12 0,0
18.07.2019 18:00:00 22,5 10,1 - - 21 11 - - WNW 1009,3 10 48 0,0
18.07.2019 17:00:00 22,6 11,6 - - 13 7 - - WNW 1009,1 10 36 0,0
18.07.2019 16:00:00 20,7 13,2 - - 18 10 - - NW 1009,1 10 18 0,0
18.07.2019 15:00:00 20,4 14,8 - - 16 9 - - WNW 1009,0 10 12 0,0
18.07.2019 14:00:00 18,1 14,7 - - 22 12 - - WNW 1009,0 10 0 0,0
18.07.2019 13:00:00 19,7 16,5 - - 11 6 - - WSW 1008,5 10 6 0,0
18.07.2019 12:00:00 17,3 16,0 - - 11 6 - - WSW 1009,1 10 0 0,0
18.07.2019 11:00:00 17,3 16,9 - - 16 9 - - SW 1009,0 10 0 0,2
18.07.2019 10:00:00 16,2 15,7 18,0 16,0 13 7 - - SW 1009,0 3,5 0 0,8
18.07.2019 09:00:00 17,1 14,8 - - 16 9 - - SW 1009,0 10 0 0,0
18.07.2019 08:00:00 17,0 14,5 - - 15 8 - - SW 1009,0 10 6 0,0
18.07.2019 07:00:00 15,6 14,0 - - 11 6 - - SSW 1009,1 16 6 0,0
18.07.2019 06:00:00 14,7 13,1 - - 8 4 - - SSW 1009,2 16 0 0,0
18.07.2019 05:00:00 14,1 12,9 - - 9 5 - - SW 1009,7 10 0 0,0
18.07.2019 04:00:00 14,9 13,5 - - 8 4 - - SW 1009,6 20 0 0,2
18.07.2019 03:00:00 14,4 12,4 - - 9 5 - - WSW 1010,1 26 0 0,0
18.07.2019 02:00:00 15,9 13,4 - - 11 6 - - WSW 1010,4 30 0 0,0
18.07.2019 01:00:00 16,6 13,6 - - 9 5 - - WSW 1010,9 10 - 0,0
18.07.2019 00:00:00 17,1 13,8 - - 11 6 - - SW 1011,0 10 0 0,0

tt = temperature
td = dewpoint
tt -20cm = temperature -20cm
tt -100cm = temperature -100cm
ff = wind speed
fx = gusts
dd = wind direction
ppp = reduced air pressure
vv = visibility
sd = sunshine duration
rr = precipitation

Next stations